| time (UTC) | temp F | wind direction | speed knots | gust knots | rain 1hr in | rain 24hr in | rain mn in | humidity % | barometer mb |
| 20260505041457 | 49 | 200 | 0.0 | 0.0 | 0.00 | 0.00 | 0.00 | 87 | 1014.3 |
| 20260505040954 | 49 | 133 | 0.0 | 0.9 | 0.00 | 0.00 | 0.00 | 87 | 1014.2 |
| 20260505040452 | 50 | 259 | 0.0 | 0.0 | 0.00 | 0.00 | 0.00 | 86 | 1014.2 |
| 20260505035948 | 51 | 160 | 0.0 | 0.9 | 0.00 | 0.00 | 0.00 | 84 | 1014.3 |
| 20260505035444 | 51 | 192 | 1.7 | 3.5 | 0.00 | 0.00 | 0.00 | 83 | 1014.3 |
| 20260505034942 | 49 | 109 | 0.9 | 1.7 | 0.00 | 0.00 | 0.00 | 86 | 1014.3 |
| 20260505034438 | 49 | 226 | 0.0 | 0.0 | 0.00 | 0.00 | 0.00 | 87 | 1014.3 |
| 20260505033935 | 49 | 163 | 0.0 | 0.0 | 0.00 | 0.00 | 0.00 | 87 | 1014.4 |
| 20260505033432 | 49 | 229 | 0.0 | 0.0 | 0.00 | 0.00 | 0.00 | 86 | 1014.4 |
| 20260505032930 | 50 | 192 | 0.0 | 0.0 | 0.00 | 0.00 | 0.00 | 86 | 1014.3 |
| 20260505032427 | 50 | 210 | 0.0 | 0.9 | 0.00 | 0.00 | 0.00 | 86 | 1014.4 |
| 20260505031923 | 50 | 135 | 0.0 | 0.9 | 0.00 | 0.00 | 0.00 | 85 | 1014.4 |
| 20260505031421 | 50 | 149 | 0.0 | 0.9 | 0.00 | 0.00 | 0.00 | 85 | 1014.4 |
| 20260505030918 | 50 | 188 | 0.0 | 1.7 | 0.00 | 0.00 | 0.00 | 85 | 1014.5 |
| 20260505030413 | 51 | 160 | 0.9 | 0.9 | 0.00 | 0.00 | 0.00 | 85 | 1014.3 |
| 20260505025909 | 50 | 144 | 0.0 | 1.7 | 0.00 | 0.00 | 0.00 | 84 | 1014.5 |
| 20260505025407 | 50 | 296 | 0.0 | 0.9 | 0.00 | 0.00 | 0.00 | 86 | 1014.4 |
| 20260505024905 | 50 | 143 | 0.0 | 0.0 | 0.00 | 0.00 | 0.00 | 86 | 1014.5 |
| 20260505024403 | 50 | 150 | 0.0 | 0.9 | 0.00 | 0.00 | 0.00 | 85 | 1014.6 |
| 20260505023859 | 50 | 178 | 0.0 | 0.0 | 0.00 | 0.00 | 0.00 | 85 | 1014.6 |
| 20260505023356 | 50 | 179 | 0.0 | 0.0 | 0.00 | 0.00 | 0.00 | 86 | 1014.4 |
| 20260505022853 | 51 | 176 | 0.0 | 0.9 | 0.00 | 0.00 | 0.00 | 85 | 1014.6 |
| 20260505022350 | 51 | 146 | 0.0 | 0.0 | 0.00 | 0.00 | 0.00 | 85 | 1014.7 |
| 20260505021848 | 51 | 153 | 0.9 | 0.9 | 0.00 | 0.00 | 0.00 | 85 | 1014.7 |
| 20260505021344 | 51 | 125 | 0.0 | 0.0 | 0.00 | 0.00 | 0.00 | 85 | 1014.6 |
| 20260505020840 | 51 | 120 | 0.0 | 0.0 | 0.00 | 0.00 | 0.00 | 85 | 1014.7 |
| 20260505020336 | 52 | 141 | 0.0 | 1.7 | 0.00 | 0.00 | 0.00 | 83 | 1014.6 |
| 20260505015833 | 52 | 99 | 0.0 | 0.9 | 0.00 | 0.00 | 0.00 | 83 | 1014.7 |
| 20260505015330 | 52 | 338 | 0.0 | 0.9 | 0.00 | 0.00 | 0.00 | 83 | 1014.7 |
| 20260505014827 | 52 | 71 | 1.7 | 1.7 | 0.00 | 0.00 | 0.00 | 82 | 1014.6 |
| 20260505014324 | 52 | 237 | 0.0 | 0.0 | 0.00 | 0.00 | 0.00 | 84 | 1014.5 |
| 20260505013820 | 52 | 174 | 0.0 | 0.9 | 0.00 | 0.00 | 0.00 | 84 | 1014.5 |
| 20260505013318 | 53 | 167 | 0.0 | 0.0 | 0.00 | 0.00 | 0.00 | 82 | 1014.4 |
| 20260505012816 | 53 | 168 | 0.0 | 0.9 | 0.00 | 0.00 | 0.00 | 82 | 1014.2 |
| 20260505012314 | 53 | 194 | 0.0 | 0.0 | 0.00 | 0.00 | 0.00 | 82 | 1014.1 |
| 20260505011809 | 53 | 162 | 0.0 | 0.0 | 0.00 | 0.00 | 0.00 | 81 | 1014.1 |
| 20260505011307 | 54 | 141 | 0.0 | 0.0 | 0.00 | 0.00 | 0.00 | 80 | 1014.3 |
| 20260505010802 | 55 | 229 | 0.9 | 1.7 | 0.00 | 0.00 | 0.00 | 79 | 1014.3 |
| 20260505010258 | 55 | 129 | 0.0 | 0.9 | 0.00 | 0.00 | 0.00 | 76 | 1014.1 |
| 20260505005754 | 56 | 192 | 0.0 | 0.0 | 0.00 | 0.00 | 0.00 | 77 | 1013.9 |
| 20260505005252 | 56 | 147 | 0.9 | 0.9 | 0.00 | 0.00 | 0.00 | 75 | 1013.7 |
| 20260505004749 | 56 | 116 | 0.9 | 0.9 | 0.00 | 0.00 | 0.00 | 74 | 1013.9 |
| 20260505004245 | 56 | 108 | 0.0 | 0.0 | 0.00 | 0.00 | 0.00 | 75 | 1014.0 |
| 20260505003743 | 56 | 155 | 0.9 | 0.9 | 0.00 | 0.00 | 0.00 | 76 | 1014.1 |
| 20260505003240 | 58 | 174 | 0.9 | 1.7 | 0.00 | 0.00 | 0.00 | 72 | 1014.1 |
| 20260505002736 | 58 | 97 | 0.0 | 1.7 | 0.00 | 0.00 | 0.00 | 70 | 1013.8 |
| 20260505002234 | 59 | 250 | 1.7 | 3.5 | 0.00 | 0.00 | 0.00 | 71 | 1013.7 |
| 20260505001731 | 61 | 271 | 1.7 | 3.5 | 0.00 | 0.00 | 0.00 | 69 | 1013.9 |
| 20260505001229 | 63 | 273 | 2.6 | 3.5 | 0.00 | 0.00 | 0.00 | 58 | 1013.5 |
| 20260505000725 | 64 | 248 | 2.6 | 6.1 | 0.00 | 0.00 | 0.00 | 57 | 1013.6 |
| 20260505000226 | 63 | 260 | 3.5 | 5.2 | 0.00 | 0.00 | 0.00 | 56 | 1013.7 |
| 20260504235720 | 64 | 247 | 1.7 | 5.2 | 0.00 | 0.00 | 0.00 | 58 | 1013.6 |
| 20260504235216 | 63 | 168 | 3.5 | 3.5 | 0.00 | 0.00 | 0.00 | 60 | 1013.7 |
| 20260504234713 | 63 | 238 | 3.5 | 5.2 | 0.00 | 0.00 | 0.00 | 59 | 1013.5 |
| 20260504234210 | 64 | 257 | 2.6 | 7.0 | 0.00 | 0.00 | 0.00 | 59 | 1013.4 |
| 20260504233706 | 64 | 253 | 3.5 | 3.5 | 0.00 | 0.00 | 0.00 | 56 | 1013.3 |
| 20260504233202 | 65 | 248 | 3.5 | 3.5 | 0.00 | 0.00 | 0.00 | 56 | 1013.4 |
| 20260504232700 | 65 | 163 | 3.5 | 5.2 | 0.00 | 0.00 | 0.00 | 53 | 1013.2 |
| 20260504232156 | 65 | 215 | 4.3 | 8.7 | 0.00 | 0.00 | 0.00 | 52 | 1013.2 |
| 20260504231653 | 67 | 256 | 3.5 | 6.1 | 0.00 | 0.00 | 0.00 | 50 | 1012.9 |
| 20260504231150 | 67 | 8 | 0.9 | 3.5 | 0.00 | 0.00 | 0.00 | 49 | 1013.0 |
| 20260504230646 | 67 | 189 | 0.0 | 0.9 | 0.00 | 0.00 | 0.00 | 49 | 1013.0 |
| 20260504230145 | 66 | 270 | 1.7 | 5.2 | 0.00 | 0.00 | 0.00 | 52 | 1013.4 |
| 20260504225643 | 66 | 189 | 2.6 | 7.0 | 0.00 | 0.00 | 0.00 | 49 | 1013.6 |
| 20260504225138 | 66 | 249 | 3.5 | 8.7 | 0.00 | 0.00 | 0.00 | 50 | 1013.3 |
| 20260504224636 | 67 | 270 | 1.7 | 5.2 | 0.00 | 0.00 | 0.00 | 53 | 1013.4 |
| 20260504224132 | 68 | 165 | 1.7 | 6.1 | 0.00 | 0.00 | 0.00 | 49 | 1013.4 |
| 20260504223630 | 69 | 248 | 2.6 | 5.2 | 0.00 | 0.00 | 0.00 | 47 | 1013.0 |
| 20260504223125 | 69 | 171 | 2.6 | 6.1 | 0.00 | 0.00 | 0.00 | 48 | 1012.9 |
| 20260504222623 | 68 | 207 | 1.7 | 5.2 | 0.00 | 0.00 | 0.00 | 49 | 1013.2 |
| 20260504222120 | 69 | 171 | 2.6 | 7.8 | 0.00 | 0.00 | 0.00 | 48 | 1013.3 |
| 20260504221617 | 69 | 216 | 2.6 | 6.1 | 0.00 | 0.00 | 0.00 | 48 | 1013.4 |
| 20260504221114 | 69 | 246 | 1.7 | 3.5 | 0.00 | 0.00 | 0.00 | 50 | 1013.2 |
| 20260504220610 | 69 | 184 | 5.2 | 7.8 | 0.00 | 0.00 | 0.00 | 47 | 1013.2 |
| 20260504220108 | 69 | 212 | 3.5 | 5.2 | 0.00 | 0.00 | 0.00 | 48 | 1013.3 |
| 20260504215603 | 68 | 152 | 1.7 | 3.5 | 0.00 | 0.00 | 0.00 | 48 | 1013.3 |
| 20260504215101 | 67 | 249 | 0.0 | 2.6 | 0.00 | 0.00 | 0.00 | 48 | 1013.3 |
| 20260504214557 | 67 | 223 | 1.7 | 3.5 | 0.00 | 0.00 | 0.00 | 48 | 1013.6 |
| 20260504214053 | 67 | 240 | 1.7 | 6.1 | 0.00 | 0.00 | 0.00 | 52 | 1013.4 |
| 20260504213550 | 67 | 252 | 2.6 | 6.1 | 0.00 | 0.00 | 0.00 | 49 | 1013.5 |
| 20260504213047 | 67 | 96 | 4.3 | 7.8 | 0.00 | 0.00 | 0.00 | 55 | 1013.5 |
| 20260504212543 | 68 | 284 | 3.5 | 5.2 | 0.00 | 0.00 | 0.00 | 49 | 1013.4 |
| 20260504212040 | 69 | 184 | 3.5 | 7.8 | 0.00 | 0.00 | 0.00 | 42 | 1013.2 |
| 20260504211537 | 69 | 266 | 5.2 | 7.8 | 0.00 | 0.00 | 0.00 | 42 | 1013.2 |
| 20260504211034 | 69 | 242 | 1.7 | 5.2 | 0.00 | 0.00 | 0.00 | 45 | 1013.0 |
| 20260504210531 | 69 | 196 | 2.6 | 7.0 | 0.00 | 0.00 | 0.00 | 44 | 1012.8 |
| 20260504210028 | 69 | 202 | 2.6 | 12.2 | 0.00 | 0.00 | 0.00 | 47 | 1012.9 |
| 20260504205526 | 69 | 246 | 1.7 | 7.0 | 0.00 | 0.00 | 0.00 | 48 | 1012.7 |
| 20260504205023 | 69 | 215 | 2.6 | 5.2 | 0.00 | 0.00 | 0.00 | 51 | 1012.6 |
| 20260504204521 | 69 | 245 | 1.7 | 9.6 | 0.00 | 0.00 | 0.00 | 43 | 1012.7 |
| 20260504204020 | 70 | 359 | 6.1 | 9.6 | 0.00 | 0.00 | 0.00 | 42 | 1012.7 |
| 20260504203518 | 69 | 253 | 2.6 | 5.2 | 0.00 | 0.00 | 0.00 | 42 | 1012.6 |
| 20260504203015 | 69 | 234 | 5.2 | 7.8 | 0.00 | 0.00 | 0.00 | 43 | 1012.5 |
| 20260504202510 | 70 | 231 | 3.5 | 8.7 | 0.00 | 0.00 | 0.00 | 43 | 1012.4 |
| 20260504202007 | 71 | 204 | 4.3 | 6.1 | 0.00 | 0.00 | 0.00 | 41 | 1012.4 |
| 20260504201504 | 71 | 223 | 7.0 | 7.8 | 0.00 | 0.00 | 0.00 | 43 | 1012.4 |
| 20260504201002 | 72 | 211 | 2.6 | 7.0 | 0.00 | 0.00 | 0.00 | 43 | 1012.4 |
| 20260504200458 | 71 | 141 | 0.9 | 7.0 | 0.00 | 0.00 | 0.00 | 41 | 1012.4 |
| 20260504195955 | 70 | 155 | 6.1 | 8.7 | 0.00 | 0.00 | 0.00 | 42 | 1012.5 |
| 20260504195451 | 69 | 96 | 0.9 | 8.7 | 0.00 | 0.00 | 0.00 | 43 | 1012.7 |
| 20260504194948 | 69 | 189 | 0.9 | 3.5 | 0.00 | 0.00 | 0.00 | 45 | 1012.8 |
| 20260504194444 | 70 | 257 | 2.6 | 5.2 | 0.00 | 0.00 | 0.00 | 43 | 1012.7 |
| 20260504193940 | 73 | 197 | 5.2 | 7.8 | 0.00 | 0.00 | 0.00 | 40 | 1012.7 |
| 20260504193437 | 71 | 177 | 3.5 | 9.6 | 0.00 | 0.00 | 0.00 | 42 | 1012.9 |
| 20260504192936 | 70 | 114 | 7.0 | 12.2 | 0.00 | 0.00 | 0.00 | 43 | 1013.0 |
| 20260504192432 | 71 | 245 | 6.1 | 8.7 | 0.00 | 0.00 | 0.00 | 40 | 1013.0 |
| 20260504191932 | 71 | 233 | 3.5 | 13.0 | 0.00 | 0.00 | 0.00 | 42 | 1013.5 |
| 20260504191429 | 69 | 222 | 6.1 | 8.7 | 0.00 | 0.00 | 0.00 | 45 | 1013.5 |
| 20260504190924 | 69 | 231 | 7.8 | 11.3 | 0.00 | 0.00 | 0.00 | 43 | 1013.6 |
| 20260504190420 | 69 | 175 | 7.8 | 12.2 | 0.00 | 0.00 | 0.00 | 45 | 1013.7 |
| 20260504185917 | 69 | 265 | 5.2 | 8.7 | 0.00 | 0.00 | 0.00 | 44 | 1013.5 |
| 20260504185415 | 70 | 273 | 2.6 | 9.6 | 0.00 | 0.00 | 0.00 | 47 | 1013.6 |
| 20260504184910 | 68 | 150 | 3.5 | 8.7 | 0.00 | 0.00 | 0.00 | 46 | 1013.7 |
| 20260504184406 | 67 | 175 | 4.3 | 7.0 | 0.00 | 0.00 | 0.00 | 49 | 1013.8 |
| 20260504183902 | 68 | 248 | 3.5 | 7.0 | 0.00 | 0.00 | 0.00 | 48 | 1013.8 |
| 20260504183400 | 67 | 147 | 4.3 | 9.6 | 0.00 | 0.00 | 0.00 | 46 | 1013.8 |
| 20260504182857 | 68 | 224 | 4.3 | 8.7 | 0.00 | 0.00 | 0.00 | 48 | 1013.8 |
| 20260504182354 | 69 | 272 | 2.6 | 7.8 | 0.00 | 0.00 | 0.00 | 49 | 1014.1 |
| 20260504181851 | 68 | 118 | 3.5 | 12.2 | 0.00 | 0.00 | 0.00 | 46 | 1014.0 |
| 20260504181348 | 69 | 267 | 2.6 | 9.6 | 0.00 | 0.00 | 0.00 | 45 | 1014.0 |
| 20260504180847 | 67 | 282 | 3.5 | 7.0 | 0.00 | 0.00 | 0.00 | 47 | 1014.0 |
| 20260504180345 | 68 | 173 | 5.2 | 8.7 | 0.00 | 0.00 | 0.00 | 47 | 1014.1 |
| 20260504175843 | 68 | 166 | 5.2 | 9.6 | 0.00 | 0.00 | 0.00 | 45 | 1014.3 |
| 20260504175339 | 66 | 193 | 3.5 | 7.8 | 0.00 | 0.00 | 0.00 | 47 | 1014.4 |
| 20260504174838 | 65 | 184 | 4.3 | 7.0 | 0.00 | 0.00 | 0.00 | 49 | 1014.5 |
| 20260504174335 | 66 | 191 | 6.1 | 11.3 | 0.00 | 0.00 | 0.00 | 47 | 1014.6 |
| 20260504173832 | 67 | 301 | 6.1 | 7.8 | 0.00 | 0.00 | 0.00 | 44 | 1014.4 |
| 20260504173329 | 67 | 210 | 4.3 | 6.1 | 0.00 | 0.00 | 0.00 | 46 | 1014.4 |
| 20260504172826 | 65 | 302 | 3.5 | 6.1 | 0.00 | 0.00 | 0.00 | 46 | 1014.8 |
| 20260504172322 | 65 | 250 | 7.0 | 8.7 | 0.00 | 0.00 | 0.00 | 45 | 1014.6 |
| 20260504171818 | 65 | 207 | 2.6 | 7.0 | 0.00 | 0.00 | 0.00 | 48 | 1014.8 |
| 20260504171315 | 64 | 239 | 2.6 | 9.6 | 0.00 | 0.00 | 0.00 | 45 | 1014.6 |
| 20260504170813 | 65 | 179 | 4.3 | 7.8 | 0.00 | 0.00 | 0.00 | 46 | 1014.8 |
| 20260504170309 | 66 | 234 | 2.6 | 5.2 | 0.00 | 0.00 | 0.00 | 45 | 1015.0 |
| 20260504160228 | 66 | 196 | 8.7 | 11.3 | 0.00 | 0.00 | 0.00 | 45 | 1015.6 |
| 20260504150653 | 63 | 255 | 3.5 | 8.7 | 0.00 | 0.00 | 0.00 | 48 | 1015.9 |
| 20260504150150 | 62 | 204 | 4.3 | 7.0 | 0.00 | 0.00 | 0.00 | 46 | 1015.9 |
| 20260504141119 | 62 | 259 | 1.7 | 7.8 | 0.00 | 0.00 | 0.00 | 45 | 1016.2 |
| 20260504140615 | 61 | 237 | 5.2 | 6.1 | 0.00 | 0.00 | 0.00 | 45 | 1016.0 |
| 20260504140111 | 61 | 258 | 3.5 | 7.0 | 0.00 | 0.00 | 0.00 | 46 | 1016.1 |
| 20260504130539 | 56 | 288 | 1.7 | 5.2 | 0.00 | 0.00 | 0.00 | 53 | 1016.4 |
| 20260504110427 | 40 | 98 | 0.0 | 0.0 | 0.00 | 0.00 | 0.00 | 85 | 1017.3 |
| 20260504100349 | 40 | 219 | 0.0 | 0.0 | 0.00 | 0.00 | 0.00 | 81 | 1017.4 |
| 20260504081742 | 40 | 66 | 0.9 | 0.9 | 0.00 | 0.00 | 0.00 | 79 | 1017.7 |
| 20260504081238 | 40 | 35 | 0.0 | 0.9 | 0.00 | 0.00 | 0.00 | 79 | 1017.6 |
| 20260504080735 | 39 | 75 | 0.0 | 0.0 | 0.00 | 0.00 | 0.00 | 78 | 1017.6 |
| 20260504080231 | 40 | 75 | 0.0 | 0.0 | 0.00 | 0.00 | 0.00 | 77 | 1017.7 |
| 20260504070159 | 39 | 94 | 0.0 | 0.0 | 0.00 | 0.00 | 0.00 | 81 | 1017.9 |
| 20260504060120 | 39 | 119 | 0.0 | 0.0 | 0.00 | 0.00 | 0.00 | 76 | 1018.2 |
| 20260504050548 | 42 | 137 | 0.0 | 0.0 | 0.00 | 0.00 | 0.00 | 70 | 1018.1 |
| 20260504045542 | 43 | 126 | 0.0 | 0.0 | 0.00 | 0.00 | 0.00 | 71 | 1018.0 |